Location: Unspecified
(0.0000°N, 0.0000°E)
Time: 03:42:56
(UTC+00:00)

N. Korean satellite - Pass Details

Date: 22 August 2019
Orbit: 457 x 507 km, 97.2° (Epoch: 16 August)

Event Time Altitude Azimuth Distance (km) Brightness Sun altitude
Rises 04:53:46 0° 39° (NE) 2,502 11.0 -16.9°
Reaches altitude 10° 04:56:24 10° 61° (ENE) 1,620 10.4 -16.3°
Maximum altitude 04:58:38 16° 101° (E) 1,279 9.6 -15.8°
Drops below altitude 10° 05:00:51 10° 141° (SE) 1,611 9.5 -15.2°
Sets 05:03:27 0° 163° (SSE) 2,482 10.2 -14.6°
